When you browse on this site, cookies collect data to enhance your experience and personalize the content and advertising you see.
Visit our Privacy Policy to learn more. By continuing to use the site, you agree to this use of cookies and data.
  • în România
  • Lista ţărilor
  • Pe 7 zile
  • Temperatura apei
  • Meteo pe hartă
  • Widget-uri
  • user-avatar
    Intrare

    Meteo pe oră la Arnedillo

    Astăzi, 28 Mai, Joi

    Timp Temperatura Precipitaţii Vânt Presiune Umiditate
    00:00 +17°C° 0 mm 2 m/s 704 mmHg 71%
    01:00 +16°C° 0 mm 2 m/s 703 mmHg 71%
    02:00 +16°C° 0 mm 1 m/s 703 mmHg 71%
    03:00 +15°C° 0 mm 1 m/s 703 mmHg 72%
    04:00 +15°C° 0 mm 1 m/s 703 mmHg 69%
    05:00 +16°C° 0 mm 1 m/s 703 mmHg 67%
    06:00 +16°C° 0 mm 1 m/s 703 mmHg 65%
    07:00 +18°C° 0 mm 2 m/s 703 mmHg 58%
    08:00 +20°C° 0 mm 2 m/s 703 mmHg 51%
    09:00 +21°C° 0 mm 3 m/s 704 mmHg 44%
    10:00 +22°C° 0 mm 3 m/s 704 mmHg 41%
    11:00 +25°C° 0 mm 3 m/s 703 mmHg 37%
    12:00 +26°C° 0 mm 3 m/s 703 mmHg 33%
    13:00 +26°C° 0 mm 3 m/s 703 mmHg 32%
    14:00 +27°C° 0 mm 3 m/s 702 mmHg 31%
    15:00 +27°C° 0 mm 3 m/s 702 mmHg 31%
    16:00 +27°C° 0 mm 3 m/s 701 mmHg 33%
    17:00 +26°C° 0 mm 3 m/s 701 mmHg 36%
    18:00 +26°C° 0 mm 2 m/s 701 mmHg 38%
    19:00 +23°C° 0 mm 2 m/s 700 mmHg 43%
    20:00 +21°C° 0 mm 1 m/s 700 mmHg 48%
    21:00 +19°C° 0 mm 1 m/s 700 mmHg 52%
    22:00 +19°C° 0 mm 1 m/s 700 mmHg 54%
    23:00 +18°C° 0 mm 1 m/s 700 mmHg 56%

    Mâine, 29 Mai, Vineri

    Timp Temperatura Precipitaţii Vânt Presiune Umiditate
    00:00 +18°C° 0 mm 1 m/s 699 mmHg 57%
    01:00 +16°C° 0 mm 1 m/s 699 mmHg 59%
    02:00 +16°C° 0 mm 1 m/s 699 mmHg 60%
    03:00 +16°C° 0 mm 1 m/s 699 mmHg 61%
    04:00 +16°C° 0 mm 1 m/s 699 mmHg 61%
    05:00 +18°C° 0 mm 1 m/s 699 mmHg 62%
    06:00 +18°C° 0 mm 1 m/s 698 mmHg 62%
    07:00 +20°C° 0 mm 1 m/s 699 mmHg 55%
    08:00 +22°C° 0 mm 1 m/s 699 mmHg 49%
    09:00 +24°C° 0 mm 2 m/s 699 mmHg 43%
    10:00 +25°C° 0 mm 2 m/s 699 mmHg 39%
    11:00 +26°C° 0 mm 3 m/s 698 mmHg 36%
    12:00 +27°C° 0 mm 3 m/s 698 mmHg 33%
    13:00 +28°C° 0 mm 4 m/s 698 mmHg 33%
    14:00 +28°C° 0 mm 4 m/s 697 mmHg 32%
    15:00 +28°C° 0 mm 4 m/s 697 mmHg 31%
    16:00 +27°C° 0 mm 4 m/s 697 mmHg 36%
    17:00 +26°C° 0 mm 5 m/s 696 mmHg 41%
    18:00 +25°C° 0 mm 5 m/s 696 mmHg 45%
    19:00 +22°C° 0 mm 4 m/s 696 mmHg 52%
    20:00 +20°C° 0 mm 3 m/s 696 mmHg 59%
    21:00 +17°C° 0 mm 2 m/s 696 mmHg 66%
    22:00 +17°C° 0 mm 2 m/s 696 mmHg 66%
    23:00 +16°C° 0 mm 2 m/s 696 mmHg 65%

    Poimâine, 30 Mai, Sâmbătă

    Timp Temperatura Precipitaţii Vânt Presiune Umiditate
    00:00 +16°C° 0 mm 2 m/s 696 mmHg 65%
    01:00 +15°C° 0 mm 1 m/s 696 mmHg 68%
    02:00 +14°C° 0 mm 1 m/s 696 mmHg 71%
    03:00 +14°C° 0 mm 1 m/s 696 mmHg 73%
    04:00 +14°C° 0 mm 0 m/s 696 mmHg 72%
    05:00 +14°C° 0 mm 0 m/s 696 mmHg 71%
    06:00 +15°C° 0 mm 0 m/s 696 mmHg 70%
    07:00 +19°C° 0 mm 1 m/s 696 mmHg 64%
    08:00 +20°C° 0 mm 1 m/s 697 mmHg 59%
    09:00 +21°C° 0 mm 2 m/s 697 mmHg 53%
    10:00 +23°C° 0 mm 2 m/s 697 mmHg 50%
    11:00 +25°C° 0 mm 2 m/s 697 mmHg 46%
    12:00 +26°C° 0 mm 2 m/s 697 mmHg 42%
    13:00 +27°C° 0 mm 2 m/s 697 mmHg 40%
    14:00 +27°C° 0 mm 2 m/s 696 mmHg 37%
    15:00 +28°C° 0 mm 2 m/s 696 mmHg 35%
    16:00 +27°C° 0 mm 2 m/s 696 mmHg 37%
    17:00 +27°C° 0 mm 2 m/s 696 mmHg 39%
    18:00 +26°C° 0 mm 2 m/s 695 mmHg 41%
    19:00 +24°C° 0 mm 2 m/s 696 mmHg 45%
    20:00 +21°C° 0 mm 2 m/s 696 mmHg 49%
    21:00 +20°C° 0 mm 1 m/s 696 mmHg 53%
    22:00 +20°C° 0 mm 1 m/s 696 mmHg 56%
    23:00 +19°C° 0 mm 1 m/s 696 mmHg 59%

    31 Mai, Duminică

    Timp Temperatura Precipitaţii Vânt Presiune Umiditate
    00:00 +18°C° 0 mm 1 m/s 696 mmHg 62%
    01:00 +18°C° 0 mm 1 m/s 695 mmHg 65%
    02:00 +16°C° 0 mm 1 m/s 695 mmHg 69%
    03:00 +16°C° 0 mm 1 m/s 695 mmHg 72%
    04:00 +16°C° 0 mm 1 m/s 695 mmHg 72%
    05:00 +18°C° 0 mm 1 m/s 695 mmHg 72%
    06:00 +18°C° 0 mm 1 m/s 696 mmHg 71%
    07:00 +20°C° 0 mm 1 m/s 696 mmHg 66%
    08:00 +22°C° 0 mm 1 m/s 696 mmHg 61%
    09:00 +24°C° 0 mm 2 m/s 697 mmHg 56%
    10:00 +25°C° 0 mm 2 m/s 697 mmHg 52%
    11:00 +26°C° 0 mm 2 m/s 697 mmHg 48%
    12:00 +27°C° 0 mm 2 m/s 697 mmHg 44%
    13:00 +27°C° 0.2 mm 2 m/s 696 mmHg 45%
    14:00 +27°C° 0.2 mm 1 m/s 696 mmHg 46%
    15:00 +27°C° 0.2 mm 1 m/s 696 mmHg 48%
    16:00 +26°C° 0.1 mm 1 m/s 696 mmHg 48%
    17:00 +26°C° 0.1 mm 2 m/s 696 mmHg 49%
    18:00 +26°C° 0.1 mm 2 m/s 696 mmHg 50%
    19:00 +24°C° 0.2 mm 2 m/s 696 mmHg 58%
    20:00 +21°C° 0.2 mm 2 m/s 696 mmHg 65%
    21:00 +19°C° 0.2 mm 2 m/s 696 mmHg 73%
    22:00 +19°C° 0.7 mm 2 m/s 696 mmHg 75%
    23:00 +18°C° 0.7 mm 2 m/s 696 mmHg 78%

    1 Iunie, Luni

    Timp Temperatura Precipitaţii Vânt Presiune Umiditate
    00:00 +19°C° 0.7 mm 1 m/s 696 mmHg 81%
    01:00 +19°C° 0.1 mm 1 m/s 696 mmHg 80%
    02:00 +19°C° 0.1 mm 1 m/s 696 mmHg 79%
    03:00 +18°C° 0.1 mm 1 m/s 695 mmHg 77%
    04:00 +19°C° 0 mm 1 m/s 695 mmHg 76%
    05:00 +19°C° 0 mm 1 m/s 695 mmHg 75%
    06:00 +19°C° 0 mm 1 m/s 695 mmHg 73%
    07:00 +21°C° 0 mm 1 m/s 696 mmHg 68%
    08:00 +22°C° 0 mm 1 m/s 696 mmHg 63%
    09:00 +24°C° 0 mm 1 m/s 696 mmHg 58%
    10:00 +25°C° 0.1 mm 2 m/s 696 mmHg 54%
    11:00 +26°C° 0.1 mm 2 m/s 696 mmHg 51%
    12:00 +27°C° 0.1 mm 2 m/s 696 mmHg 47%
    13:00 +28°C° 0.3 mm 2 m/s 696 mmHg 46%
    14:00 +28°C° 0.3 mm 2 m/s 695 mmHg 45%
    15:00 +29°C° 0.3 mm 1 m/s 695 mmHg 43%
    16:00 +26°C° 1.4 mm 3 m/s 695 mmHg 52%
    17:00 +23°C° 1.4 mm 4 m/s 694 mmHg 60%
    18:00 +21°C° 1.4 mm 5 m/s 694 mmHg 68%
    19:00 +20°C° 0.8 mm 3 m/s 694 mmHg 70%
    20:00 +19°C° 0.8 mm 2 m/s 694 mmHg 73%
    21:00 +19°C° 0.8 mm 1 m/s 695 mmHg 75%
    22:00 +19°C° 0 mm 1 m/s 695 mmHg 77%
    23:00 +18°C° 0 mm 1 m/s 695 mmHg 79%

    2 Iunie, Marţi

    Timp Temperatura Precipitaţii Vânt Presiune Umiditate
    00:00 +16°C° 0 mm 0 m/s 695 mmHg 81%
    01:00 +16°C° 0 mm 1 m/s 694 mmHg 83%
    02:00 +16°C° 0 mm 1 m/s 694 mmHg 85%
    03:00 +15°C° 0 mm 1 m/s 693 mmHg 87%
    04:00 +16°C° 0 mm 1 m/s 693 mmHg 85%
    05:00 +16°C° 0 mm 1 m/s 693 mmHg 83%
    06:00 +18°C° 0 mm 1 m/s 693 mmHg 82%
    07:00 +18°C° 0.2 mm 2 m/s 693 mmHg 76%
    08:00 +20°C° 0.2 mm 2 m/s 694 mmHg 71%
    09:00 +21°C° 0.2 mm 3 m/s 694 mmHg 66%
    10:00 +21°C° 0.6 mm 3 m/s 694 mmHg 63%
    11:00 +22°C° 0.6 mm 3 m/s 693 mmHg 60%
    12:00 +23°C° 0.6 mm 2 m/s 693 mmHg 57%
    13:00 +24°C° 0.5 mm 2 m/s 693 mmHg 54%
    14:00 +25°C° 0.5 mm 2 m/s 693 mmHg 51%
    15:00 +25°C° 0.5 mm 2 m/s 692 mmHg 48%
    16:00 +24°C° 1 mm 2 m/s 692 mmHg 56%
    17:00 +21°C° 1 mm 2 m/s 692 mmHg 65%
    18:00 +19°C° 1 mm 2 m/s 691 mmHg 73%
    19:00 +19°C° 1.5 mm 1 m/s 691 mmHg 78%
    20:00 +18°C° 1.5 mm 1 m/s 692 mmHg 82%
    21:00 +16°C° 1.5 mm 1 m/s 692 mmHg 87%
    22:00 +16°C° 0.9 mm 1 m/s 691 mmHg 88%
    23:00 +16°C° 0.9 mm 2 m/s 691 mmHg 89%
    Arată mai mult